This demonstration page uses our WeatherBlox Daily Observations layout. Learn more.

Left ArrowRight Arrow

38.80484, -77.04692

Hourly Observations for November 3, 2015

Temp ( °F °C ) Dew Point ( °F °C ) Humidity (%) Winds ( mph kmh ) Pressure ( in mb ) Visibility ( mi km ) Precip ( " mm )
12:52 am 00:52 Mostly Clear 50 10 49 9.4 96 96 Calm 30.15 1021 10 16 0.00 0.00
1:52 am 01:52 Mostly Clear 50 10 48 8.9 93 93 Calm 30.15 1021 10 16 0.00 0.00
2:52 am 02:52 Mostly Clear 48 8.9 47 8.3 96 96 Calm 30.16 1021 10 16 0.00 0.00
3:52 am 03:52 Clear 47 8.3 46 7.8 97 97 N 3 6 30.16 1021 10 16 0.00 0.00
4:52 am 04:52 Clear 47 8.3 46 7.8 97 97 N 5 7 30.17 1022 10 16 0.00 0.00
5:52 am 05:52 Clear 47 8.3 46 7.8 97 97 Calm 30.19 1022 10 16 0.00 0.00
6:52 am 06:52 Sunny 47 8.3 46 7.8 97 97 Calm 30.21 1023 10 16 0.00 0.00
7:52 am 07:52 Sunny 51 10.6 48 8.9 89 89 Calm 30.24 1024 10 16 0.00 0.00
8:52 am 08:52 Sunny 54 12.2 50 10 87 87 Calm 30.24 1024 7 11 0.00 0.00
9:52 am 09:52 Sunny 58 14.4 50 10 75 75 Calm 30.24 1024 10 16 0.00 0.00
10:52 am 10:52 Sunny 65 18.3 50 10 59 59 Calm 30.24 1024 10 16 0.00 0.00
11:52 am 11:52 Sunny 67 19.4 44 6.7 44 44 Calm 30.23 1024 10 16 0.00 0.00
12:52 pm 12:52 Sunny 69 20.6 46 7.8 44 44 Calm 30.21 1023 10 16 0.00 0.00
1:52 pm 13:52 Sunny 70 21.1 45 7.2 41 41 SE 3 6 30.20 1023 10 16 0.00 0.00
2:52 pm 14:52 Sunny 72 22.2 45 7.2 38 38 Calm 30.20 1023 10 16 0.00 0.00
3:52 pm 15:52 Sunny 71 21.7 45 7.2 39 39 Calm 30.21 1023 10 16 0.00 0.00
4:52 pm 16:52 Sunny 69 20.6 45 7.2 42 42 S 5 7 30.22 1023 10 16 0.00 0.00
5:52 pm 17:52 Clear 62 16.7 49 9.4 62 62 S 3 6 30.23 1024 10 16 0.00 0.00
6:52 pm 18:52 Clear 61 16.1 49 9.4 65 65 SSE 3 6 30.25 1025 10 16 0.00 0.00
7:52 pm 19:52 Clear 60 15.6 48 8.9 65 65 S 5 7 30.26 1025 10 16 0.00 0.00
8:52 pm 20:52 Clear 59 15 50 10 72 72 Calm 30.27 1025 10 16 0.00 0.00
9:52 pm 21:52 Clear 56 13.3 52 11.1 87 87 Calm 30.27 1025 10 16 0.00 0.00
10:52 pm 22:52 Clear 55 12.8 52 11.1 90 90 Calm 30.27 1025 10 16 0.00 0.00
11:52 pm 23:52 Mostly Clear 53 11.7 49 9.4 86 86 Calm 30.27 1025 10 16 0.00 0.00

Powered by AerisWeather